Location: Aracaju
(10.9167°S, 37.0667°W)
Time: 07:31:32
(UTC-03:00)

ISS - Visible Passes

Search period start: 10 July 2025 00:00
Search period end: 20 July 2025 00:00
Orbit: 413 x 417 km, 51.6° (Epoch: 10 July)

Date Brightness Start Highest point End Pass type
(mag) Time Alt. Az. Time Alt. Az. Time Alt. Az.
11 Jul -3.7 05:08:50 10° NW 05:12:10 83° NE 05:15:32 10° SE visible
12 Jul -1.9 04:20:24 10° N 04:23:24 31° NE 04:26:26 10° ESE visible
13 Jul -0.4 03:35:43 12° ENE 03:35:43 12° ENE 03:36:28 10° E visible
13 Jul -2.3 05:08:49 11° W 05:11:09 20° SW 05:13:41 10° S visible
14 Jul -1.6 04:24:39 16° SSE 04:24:39 16° SSE 04:25:31 10° SSE visible
